Вернуться в каталог

STARLINK-35995

АктивенСвязьVLEO
NORAD 66817·PAYLOAD·🇺🇸 United States

Запущен Dec 1, 2025 с Cape Canaveral Space Force Station

Loading…

Ближайшие Пролёты (ближайшие 24 часа)

TLE

СвежийSource: CelesTrak SupGP

Эпоха: Sep 15, 2026, 02:47 UTC

1 66817C 25278AC  26258.11645833  .00063342  00000+0  22937-2 0  2586
2 66817  43.0005 124.5062 0001465 276.9089 325.6561 15.27555197    15

Отслеживайте STARLINK-35995 в реальном времени с AllMySat

Download on the App Store